Weather History for Farmingdale, NY

Change the Weather History Date:

Tuesday, April 9, 2013

  Actual Average Record
Temperature  
Mean Temperature 64 °F -  
Max Temperature 82 °F 55 °F 82 °F (2013)
Min Temperature 48 °F 38 °F 30 °F (1997)
Growing Degree Days 14 (Base 50)    
Moisture  
Dew Point 44 °F    
Average Humidity 57    
Maximum Humidity 93    
Minimum Humidity 19    
Precipitation  
Precipitation 0.00 in - - ()
Sea Level Pressure  
Sea Level Pressure 29.95 in    
Wind  
Wind Speed 8 mph (WSW)    
Max Wind Speed 20 mph    
Max Gust Speed 31 mph    
Visibility 9 miles    
Events      
Averages and records for this station are not official NWS values.
T = Trace of Precipitation, MM = Missing Value Source: NWS Daily Summary

Daily Weather History Graph

Daily Weather History Graph

Search for Another Location

Airport:

Trip Planner

Search our weather history database for the weather conditions in past years. The results will help you decide how hot, cold, wet, or windy it might be!

Date:

Astronomy

Apr. 09, 2013 Rise Set
Actual Time 6:23 AM EDT 7:27 PM EDT
Civil Twilight 5:55 AM EDT 7:55 PM EDT
Nautical Twilight 5:22 AM EDT 8:28 PM EDT
Astronomical Twilight 4:47 AM EDT 9:03 PM EDT
Moon 5:45 AM EDT (4/9) 7:00 PM EDT (4/9)
Length of Visible Light 13h 59m
Length of Day
13h 03m
Waning Crescent, 1% of the Moon is Illuminated
Apr 9
Waning Crescent
Apr 10
New
Apr 18
First Quarter
Apr 25
Full
May 2
Last Quarter

Hourly Weather History & Observations

Time (EDT) Temp. Dew Point Humidity Pressure Visibility Wind Dir Wind Speed Gust Speed Precip Events Conditions
12:27 AM 48.2 °F 46.4 °F 93% 30.02 in 8.0 mi SE 6.9 mph - N/A   Partly Cloudy
12:53 AM 48.0 °F 46.0 °F 93% 30.02 in 8.0 mi SE 4.6 mph - N/A   Clear
1:53 AM 48.0 °F 46.0 °F 93% 29.98 in 8.0 mi SE 4.6 mph - N/A   Clear
2:53 AM 48.9 °F 46.9 °F 93% 29.96 in 8.0 mi SSE 3.5 mph - N/A   Scattered Clouds
3:53 AM 50.0 °F 46.9 °F 89% 29.94 in 9.0 mi Calm Calm - N/A   Mostly Cloudy
4:53 AM 48.9 °F 46.0 °F 90% 29.94 in 8.0 mi SSW 4.6 mph - N/A   Clear
5:53 AM 48.9 °F 46.0 °F 90% 29.94 in 7.0 mi SW 6.9 mph - N/A   Clear
6:53 AM 48.9 °F 46.0 °F 90% 29.95 in 6.0 mi SW 4.6 mph - N/A   Clear
7:53 AM 51.1 °F 46.9 °F 86% 29.96 in 7.0 mi SSW 4.6 mph - N/A   Partly Cloudy
8:53 AM 61.0 °F 50.0 °F 67% 29.95 in 9.0 mi West 11.5 mph - N/A   Clear
9:53 AM 69.1 °F 51.1 °F 53% 29.95 in 10.0 mi West 12.7 mph - N/A   Clear
10:51 AM 73.4 °F 48.2 °F 41% 29.93 in 6.0 mi WNW 17.3 mph 28.8 mph N/A   Haze
10:53 AM 73.9 °F 48.0 °F 40% 29.93 in 6.0 mi WNW 18.4 mph 28.8 mph N/A   Haze
11:53 AM 77.0 °F 44.1 °F 31% 29.94 in 10.0 mi WNW 16.1 mph 25.3 mph N/A   Clear
12:53 PM 79.0 °F 43.0 °F 28% 29.93 in 10.0 mi WNW 17.3 mph 31.1 mph N/A   Clear
1:53 PM 80.1 °F 41.0 °F 25% 29.93 in 10.0 mi WNW 15.0 mph 26.5 mph N/A   Clear
2:53 PM 81.0 °F 37.0 °F 21% 29.93 in 10.0 mi WNW 19.6 mph 29.9 mph N/A   Clear
3:53 PM 81.0 °F 35.1 °F 19% 29.92 in 10.0 mi NNW 10.4 mph 21.9 mph N/A   Clear
4:53 PM 80.1 °F 37.0 °F 21% 29.92 in 10.0 mi North 9.2 mph 18.4 mph N/A   Clear
5:53 PM 78.1 °F 37.9 °F 24% 29.94 in 10.0 mi North 10.4 mph - N/A   Clear
6:53 PM 75.0 °F 37.9 °F 26% 29.95 in 10.0 mi NNE 5.8 mph - N/A   Clear
7:53 PM 70.0 °F 39.9 °F 33% 29.95 in 10.0 mi East 3.5 mph - N/A   Clear
8:53 PM 62.1 °F 42.1 °F 48% 29.98 in 10.0 mi SSE 5.8 mph - N/A   Clear
9:53 PM 60.1 °F 43.0 °F 53% 29.99 in 10.0 mi Calm Calm - N/A   Clear
10:53 PM 55.9 °F 44.1 °F 64% 29.94 in 10.0 mi ESE 5.8 mph - N/A   Clear
11:53 PM 55.0 °F 46.0 °F 72% 29.92 in 10.0 mi SE 3.5 mph - N/A   Clear